Regional Weather Roundup
Issued by NWS Northern Indiana

Home | Current Version | Previous Version | Text Only | Print | Product List | Glossary Off
Versions: 1 2 3 4 5 6 7 8 9 10 11 12 13 14 15 16 17 18 19 20 21 22 23 24 25 26 27 28 29 30 31 32 33 34 35 36 37 38 39 40 41 42 43 44 45 46 47 48 49 50

000
ASUS43 KIWX 242100
RWRIWX

KIWX WEATHER ROUNDUP
NATIONAL WEATHER SERVICE NORTHERN INDIANA
500 PM EDT SAT JUN 24 2017

NOTE: "FAIR" INDICATES FEW OR NO CLOUDS BELOW 12,000 FEET WITH NO
SIGNIFICANT WEATHER AND/OR OBSTRUCTIONS TO VISIBILITY.

* THESE STATIONS ARE NOT UNDER NWS QUALITY CONTROL. THEY ALSO MAY NOT
  REPORT WEATHER SUCH AS PRECIPITATION OR FOG.

INZ001>027-242200-
NORTHERN INDIANA

CITY           SKY/WX    TMP DP  RH WIND       PRES   REMARKS
GARY*          PTSUNNY   73  41  31 W24       30.00S
MICHIGAN CITY* MOSUNNY   72  52  49 NW8       30.00S
KNOX*          MOSUNNY   73  37  27 W16G23    29.99S
SOUTH BEND     SUNNY     72  51  47 NW17G24   29.99R
ELKHART*       MOSUNNY   72  50  46 NW16      29.98S
GOSHEN         MOSUNNY   73  49  42 NW17G25   29.97S
MONTICELLO*    MOSUNNY   74  49  41 W16       30.01S
FORT WAYNE     MOSUNNY   74  53  48 W17G23    29.97S
PERU/GRISSOM   MOSUNNY   74  52  46 W18G24    29.99S

$$
INZ028>050-242200-
CENTRAL INDIANA

CITY           SKY/WX    TMP DP  RH WIND       PRES   REMARKS
LAFAYETTE      MOSUNNY   73  49  42 W18G25    30.02S
KOKOMO*        MOSUNNY   74  55  51 W21       30.01S
MUNCIE*        PTSUNNY   74  54  49 W10G22    30.00S
INDIANAPOLIS   MOSUNNY   76  54  46 NW20      30.03R

$$
MIZ043>046-050>051-056>058-064>065-071>073-077>080-242200-
SOUTHWEST LOWER MICHIGAN

CITY           SKY/WX    TMP DP  RH WIND       PRES   REMARKS
BATTLE CREEK   PTSUNNY   71  52  50 W16G26    29.97R
BENTON HARBOR  SUNNY     71  50  47 W12       29.99S
COLDWATER*     MOSUNNY   73  48  40 W17G24    29.96S
HILLSDALE*     MOSUNNY   72  46  40 W18G25    29.95R
HOLLAND        SUNNY     71  51  49 W13G22    29.98R
GRAND RAPIDS   PTSUNNY   69  51  52 W20G28    29.94S
KALAMAZOO      MOSUNNY   73  48  41 NW18G25   29.97S
STURGIS*       MOSUNNY   71  52  50 NW9       29.96S
THREE RIVERS*  PTSUNNY   72  49  44 NW13G24   29.97S

$$
OHZ001>008-015>018-024>025-242200-
NORTHWEST OHIO

CITY           SKY/WX    TMP DP  RH WIND       PRES   REMARKS
DEFIANCE       MOSUNNY   74  53  48 W12G22    29.95R
FINDLAY        PTSUNNY   78  55  44 W20       29.93S
TOLEDO EXPRESS MOSUNNY   75  53  46 W14       29.92S
TOLEDO METCALF MOSUNNY   77  55  46 W17G26    29.92S
LIMA           MOSUNNY   76  57  51 W18G29    29.96S

$$
AND FOR LAKE MICHIGAN COASTAL AND OPEN LAKE BUOY OBSERVATIONS

STATION/POSITION TEMP    WIND        PRES    VSBY  WAVE
                 AIR SEA DIR/SP/G                  HT/PER
                 (F)     (DEG/KT/KT) (MB)    (MI)  (FT/S)
CALUMET HARBOR    73     270/  7/ 14 1015.1R
MICHIGAN CITY     69     330/  8/ 10   N/A
BURNS HARBOR      69     300/ 10/ 13 1016.3R
SOUTH LAKE BUOY   65 63  300/ 10/ 12 1014.8          1/ 3
4 MI NW BRIDGMAN  67 69  310/  8/ 10 1015.6R         2/ 5
MICHIGAN CITY     68 68  340/  6/  8   N/A           2/ 5

$$
&&




USA.gov is the U.S. government's official web portal to all federal, state and local government web resources and services.